When you browse on this site, cookies collect data to enhance your experience and personalize the content and advertising you see.
Visit our Privacy Policy to learn more. By continuing to use the site, you agree to this use of cookies and data.
  • en France
  • Liste des pays
  • À 7 jours
  • Température de l'eau
  • Carte satellitaire
  • Carte météo
  • Widgets météo
  • user-avatar
    Se connecter

    Météo par heure à Brčko

    Ce jour, 23 Mars, Samedi

    Heure Température Précipitation Vent Pression Humidité
    00:00 +10°C° 0 mm 1 m/s 763 mmHg 53%
    01:00 +9°C° 0 mm 1 m/s 762 mmHg 55%
    02:00 +9°C° 0 mm 1 m/s 762 mmHg 56%
    03:00 +9°C° 0 mm 1 m/s 762 mmHg 58%
    04:00 +8°C° 0 mm 1 m/s 762 mmHg 59%
    05:00 +9°C° 0 mm 1 m/s 762 mmHg 59%
    06:00 +9°C° 0 mm 1 m/s 762 mmHg 59%
    07:00 +10°C° 0 mm 1 m/s 762 mmHg 59%
    08:00 +12°C° 0 mm 1 m/s 762 mmHg 56%
    09:00 +14°C° 0 mm 1 m/s 762 mmHg 52%
    10:00 +16°C° 0 mm 1 m/s 762 mmHg 49%
    11:00 +18°C° 0 mm 1 m/s 761 mmHg 47%
    12:00 +18°C° 0 mm 2 m/s 761 mmHg 46%
    13:00 +19°C° 0 mm 2 m/s 761 mmHg 45%
    14:00 +19°C° 0 mm 2 m/s 760 mmHg 43%
    15:00 +19°C° 0 mm 2 m/s 760 mmHg 42%
    16:00 +19°C° 0 mm 2 m/s 760 mmHg 40%
    17:00 +17°C° 0 mm 2 m/s 760 mmHg 44%
    18:00 +16°C° 0 mm 1 m/s 760 mmHg 48%
    19:00 +14°C° 0 mm 1 m/s 760 mmHg 51%
    20:00 +13°C° 0 mm 1 m/s 760 mmHg 53%
    21:00 +12°C° 0 mm 1 m/s 760 mmHg 54%
    22:00 +11°C° 0 mm 0 m/s 761 mmHg 55%
    23:00 +10°C° 0 mm 0 m/s 761 mmHg 57%

    Demain, 24 Mars, Dimanche

    Heure Température Précipitation Vent Pression Humidité
    00:00 +10°C° 0 mm 0 m/s 761 mmHg 58%
    01:00 +9°C° 0 mm 0 m/s 761 mmHg 59%
    02:00 +10°C° 0 mm 1 m/s 761 mmHg 61%
    03:00 +9°C° 0 mm 1 m/s 760 mmHg 62%
    04:00 +9°C° 0 mm 1 m/s 760 mmHg 64%
    05:00 +10°C° 0 mm 1 m/s 760 mmHg 63%
    06:00 +10°C° 0 mm 1 m/s 760 mmHg 63%
    07:00 +10°C° 0 mm 1 m/s 760 mmHg 63%
    08:00 +13°C° 0 mm 1 m/s 760 mmHg 55%
    09:00 +14°C° 0 mm 0 m/s 760 mmHg 47%
    10:00 +17°C° 0 mm 0 m/s 760 mmHg 40%
    11:00 +20°C° 0 mm 1 m/s 759 mmHg 37%
    12:00 +20°C° 0 mm 1 m/s 758 mmHg 34%
    13:00 +20°C° 0 mm 2 m/s 758 mmHg 31%
    14:00 +20°C° 0 mm 2 m/s 757 mmHg 30%
    15:00 +20°C° 0 mm 2 m/s 757 mmHg 30%
    16:00 +20°C° 0 mm 2 m/s 756 mmHg 30%
    17:00 +18°C° 0 mm 2 m/s 756 mmHg 35%
    18:00 +16°C° 0 mm 2 m/s 756 mmHg 40%
    19:00 +14°C° 0 mm 2 m/s 756 mmHg 44%
    20:00 +13°C° 0 mm 1 m/s 756 mmHg 46%
    21:00 +13°C° 0 mm 1 m/s 756 mmHg 48%
    22:00 +12°C° 0 mm 1 m/s 756 mmHg 49%
    23:00 +12°C° 0 mm 1 m/s 756 mmHg 51%

    Après-demain, 25 Mars, Lundi

    Heure Température Précipitation Vent Pression Humidité
    00:00 +11°C° 0 mm 1 m/s 756 mmHg 52%
    01:00 +11°C° 0 mm 1 m/s 755 mmHg 53%
    02:00 +10°C° 0 mm 1 m/s 755 mmHg 55%
    03:00 +10°C° 0 mm 1 m/s 755 mmHg 56%
    04:00 +10°C° 0 mm 1 m/s 755 mmHg 57%
    05:00 +10°C° 0 mm 1 m/s 755 mmHg 57%
    06:00 +10°C° 0 mm 1 m/s 755 mmHg 57%
    07:00 +10°C° 0 mm 2 m/s 755 mmHg 57%
    08:00 +13°C° 0 mm 2 m/s 754 mmHg 53%
    09:00 +15°C° 0 mm 2 m/s 754 mmHg 49%
    10:00 +18°C° 0 mm 2 m/s 754 mmHg 44%
    11:00 +18°C° 0 mm 2 m/s 753 mmHg 44%
    12:00 +19°C° 0 mm 2 m/s 753 mmHg 43%
    13:00 +20°C° 0 mm 3 m/s 753 mmHg 42%
    14:00 +19°C° 0.1 mm 3 m/s 752 mmHg 44%
    15:00 +19°C° 0.1 mm 4 m/s 752 mmHg 46%
    16:00 +18°C° 0.1 mm 4 m/s 752 mmHg 49%
    17:00 +15°C° 0 mm 4 m/s 752 mmHg 54%
    18:00 +13°C° 0 mm 4 m/s 752 mmHg 59%
    19:00 +12°C° 0 mm 4 m/s 753 mmHg 63%
    20:00 +11°C° 1 mm 4 m/s 754 mmHg 69%
    21:00 +9°C° 1 mm 5 m/s 755 mmHg 75%
    22:00 +8°C° 1 mm 6 m/s 755 mmHg 81%
    23:00 +8°C° 0.5 mm 5 m/s 756 mmHg 77%

    26 Mars, Mardi

    Heure Température Précipitation Vent Pression Humidité
    00:00 +7°C° 0.5 mm 4 m/s 757 mmHg 74%
    01:00 +8°C° 0.5 mm 3 m/s 758 mmHg 71%
    02:00 +7°C° 0 mm 3 m/s 758 mmHg 70%
    03:00 +7°C° 0 mm 3 m/s 758 mmHg 70%
    04:00 +5°C° 0 mm 3 m/s 758 mmHg 69%
    05:00 +5°C° 0 mm 4 m/s 758 mmHg 68%
    06:00 +5°C° 0 mm 4 m/s 758 mmHg 68%
    07:00 +5°C° 0 mm 5 m/s 759 mmHg 67%
    08:00 +6°C° 0 mm 5 m/s 759 mmHg 62%
    09:00 +6°C° 0 mm 5 m/s 759 mmHg 58%
    10:00 +7°C° 0 mm 6 m/s 759 mmHg 54%
    11:00 +8°C° 0.1 mm 6 m/s 759 mmHg 50%
    12:00 +8°C° 0.1 mm 6 m/s 759 mmHg 46%
    13:00 +9°C° 0.1 mm 6 m/s 759 mmHg 42%
    14:00 +9°C° 0.3 mm 6 m/s 759 mmHg 42%
    15:00 +9°C° 0.3 mm 6 m/s 759 mmHg 43%
    16:00 +9°C° 0.3 mm 6 m/s 759 mmHg 43%
    17:00 +8°C° 0.1 mm 5 m/s 759 mmHg 46%
    18:00 +7°C° 0.1 mm 4 m/s 760 mmHg 50%
    19:00 +7°C° 0.1 mm 3 m/s 760 mmHg 53%
    20:00 +5°C° 0 mm 3 m/s 761 mmHg 55%
    21:00 +5°C° 0 mm 3 m/s 761 mmHg 56%
    22:00 +4°C° 0 mm 4 m/s 761 mmHg 58%
    23:00 +4°C° 0 mm 3 m/s 762 mmHg 59%

    27 Mars, Mercredi

    Heure Température Précipitation Vent Pression Humidité
    00:00 +3°C° 0 mm 3 m/s 762 mmHg 59%
    01:00 +4°C° 0 mm 2 m/s 762 mmHg 60%
    02:00 +3°C° 0 mm 2 m/s 762 mmHg 62%
    03:00 +3°C° 0 mm 1 m/s 762 mmHg 64%
    04:00 +3°C° 0 mm 1 m/s 762 mmHg 66%
    05:00 +3°C° 0 mm 1 m/s 762 mmHg 65%
    06:00 +3°C° 0 mm 2 m/s 763 mmHg 64%
    07:00 +3°C° 0 mm 2 m/s 763 mmHg 63%
    08:00 +5°C° 0 mm 2 m/s 763 mmHg 57%
    09:00 +7°C° 0 mm 3 m/s 763 mmHg 52%
    10:00 +9°C° 0 mm 3 m/s 763 mmHg 47%
    11:00 +9°C° 0 mm 3 m/s 763 mmHg 48%
    12:00 +10°C° 0 mm 3 m/s 762 mmHg 50%
    13:00 +10°C° 0 mm 4 m/s 762 mmHg 51%
    14:00 +10°C° 0 mm 3 m/s 762 mmHg 50%
    15:00 +11°C° 0 mm 3 m/s 762 mmHg 49%
    16:00 +11°C° 0 mm 3 m/s 761 mmHg 48%
    17:00 +10°C° 0 mm 3 m/s 762 mmHg 52%
    18:00 +8°C° 0 mm 2 m/s 762 mmHg 55%
    19:00 +8°C° 0 mm 1 m/s 762 mmHg 59%
    20:00 +8°C° 0 mm 1 m/s 763 mmHg 59%
    21:00 +8°C° 0 mm 1 m/s 763 mmHg 59%
    22:00 +8°C° 0 mm 1 m/s 763 mmHg 59%
    23:00 +8°C° 0 mm 1 m/s 763 mmHg 63%

    28 Mars, Jeudi

    Heure Température Précipitation Vent Pression Humidité
    00:00 +7°C° 0 mm 1 m/s 763 mmHg 67%
    01:00 +7°C° 0 mm 1 m/s 763 mmHg 70%
    02:00 +6°C° 0 mm 1 m/s 763 mmHg 73%
    03:00 +6°C° 0 mm 1 m/s 763 mmHg 76%
    04:00 +5°C° 0 mm 1 m/s 763 mmHg 79%
    05:00 +6°C° 0 mm 1 m/s 763 mmHg 78%
    06:00 +6°C° 0 mm 1 m/s 764 mmHg 78%
    07:00 +6°C° 0 mm 1 m/s 764 mmHg 77%
    08:00 +8°C° 0 mm 1 m/s 764 mmHg 69%
    09:00 +10°C° 0 mm 1 m/s 764 mmHg 61%
    10:00 +12°C° 0 mm 1 m/s 764 mmHg 52%
    11:00 +13°C° 0 mm 1 m/s 764 mmHg 48%
    12:00 +14°C° 0 mm 2 m/s 763 mmHg 44%
    13:00 +14°C° 0 mm 2 m/s 763 mmHg 40%
    14:00 +14°C° 0 mm 2 m/s 763 mmHg 40%
    15:00 +14°C° 0 mm 2 m/s 763 mmHg 40%
    16:00 +14°C° 0 mm 2 m/s 763 mmHg 40%
    17:00 +13°C° 0 mm 2 m/s 763 mmHg 43%
    18:00 +12°C° 0 mm 2 m/s 763 mmHg 45%
    19:00 +11°C° 0 mm 1 m/s 764 mmHg 48%
    20:00 +11°C° 0 mm 1 m/s 764 mmHg 49%
    21:00 +11°C° 0 mm 1 m/s 764 mmHg 50%
    22:00 +10°C° 0 mm 1 m/s 765 mmHg 51%
    23:00 +10°C° 0 mm 1 m/s 765 mmHg 53%
    Voir plus